Find Yunhai-2 02 zu 02 xing

NORAD ID: 59281 Int'l Des: 2024-052 Owner: CASC Country: CN operational
LEOCIRCULAR

Live-Position

3D-Globus wird geladen...

Über Yunhai-2 02 zu 02 xing

Beschreibung wird geladen...

Nächste Überflüge

Passes for default location (London). Set your location on the main map for personalized predictions.

Höhenverlauf

Loading altitude history...

Zweizeiliger Elementsatz

1 59281U 24052B 26135.32743200 .00000033 00000-0 77987-4 0 9994
2 59281 50.0084 161.7358 0004470 73.4783 286.6622 14.27961381111919
Epoch: 15. Mai 2026 • Age: 16 hours

Aktueller Status

Höhe 805.4 km
Geschwindigkeit 7.45 km/s
Subsatellitenpunkt -18.76°S, 122.72°E
Startdatum 21. März 2024
Alter 2.1 years
Typ other

Technische Details

Klassifizierung Payload
Masse 100.00 kg
Trockenmasse 100.00 kg
Gesamtmasse 100.00 kg
Länge 0.50 m
Durchmesser 0.20 m
Spannweite 1.00 m
Form Box + 2 pan
Hersteller DFHS
Bus-Typ YH-2
Phasenstatus In Orbit
Besitzer/Staat CASC/CN

Most Searched